Lid_Strength_Index
15 13 13 14 14 15 15 15 16 16 15 13 12 12 12 11 12 10 10 13 13 13 13 14 13 13 12 12 12 12 13 13 13 13 13 13 13 13 13 13 13 13 14 14
19 15 14 16 15 15 14 13 13 13 14 10 11 13 13 13 13 11 11 12 13 13 13 13 13 13 12 12 12 12 12 13 12 12 12 12 12 12 12 13 13 14 14 14
21 18 18 23 19 15 14 14 14 16 14 15 13 13 13 14 13 14 14 13 13 13 13 13 13 12 12 12 12 13 14 14 13 13 13 13 13 14 14 15 15 15 15 15
24 25 29 18 16 15 15 14 15 15 17 15 13 14 14 14 14 13 13 12 13 13 13 12 12 12 12 12 12 12 14 15 15 14 15 15 15 16 16 16 17 17 17 17
23 27 21 17 16 16 16 17 16 15 16 14 14 15 16 13 13 13 13 12 12 11 11 11 12 12 12 12 12 13 14 14 15 16 18 17 18 18 18 18 19 19 18 19
27 27 26 19 15 13 14 20 18 17 16 16 15 20 17 13 12 12 11 11 11 10 11 12 13 12 13 14 15 15 15 15 16 17 20 19 19 20 19 20 19 19 20 20
19 26 23 16 15 13 22 18 18 17 15 15 17 14 13 12 12 11 10 10 10 11 12 12 13 14 15 15 16 16 16 17 18 18 19 20 20 20 20 21 21 22 21 21
24 23 24 14 14 17 14 13 13 13 13 14 13 12 12 12 11 10 10 10 10 12 13 14 14 15 16 17 16 18 19 20 20 21 21 20 22 21 22 22 23 23 23 22
19 19 13 13 12 11 12 13 12 13 12 12 12 12 11 11 10 10 10 10 11 13 14 14 16 17 18 17 18 19 23 25 24 23 21 20 22 22 22 22 23 23 22 23
18 15 14 12 11 12 11 11 11 11 11 11 11 11 10 10 10 10 11 13 15 16 17 17 17 16 19 20 20 26 29 25 22 22 21 22 21 20 22 23 23 23 23 22
17 14 14 13 12 11 11 11 10 10 10 10 10 10 10 10 11 11 13 14 16 16 17 17 17 18 20 20 24 25 25 22 21 21 23 21 20 21 21 19 19 20 18 18
16 12 12 12 11 10 10 10 10 9 10 10 10 10 10 11 11 13 14 16 17 18 18 19 20 20 20 24 26 27 23 21 21 20 20 20 21 21 17 15 14 14 14 15
11 9 10 9 9 9 9 9 9 9 9 9 10 10 12 13 14 15 16 17 18 18 19 20 21 21 24 25 27 27 26 22 21 20 21 22 22 23 24 20 15 15 15 14
9 9 10 9 10 9 9 9 10 12 12 11 11 15 15 15 17 18 18 19 20 20 21 23 24 23 24 27 29 29 27 23 22 22 22 22 23 22 23 23 23 22 18 16
8 8 7 7 10 10 11 13 14 13 14 17 17 16 17 18 19 18 19 21 22 25 23 23 24 23 24 27 27 28 25 24 24 22 21 22 23 23 23 23 23 23 22 19
9 12 12 11 9 11 14 16 14 14 16 17 18 18 18 19 20 22 23 26 26 26 25 25 24 24 27 28 28 29 27 23 21 25 23 24 24 24 24 24 23 23 23 23
13 12 18 17 14 14 15 16 15 16 16 17 19 21 22 25 26 27 28 29 29 27 26 27 25 25 28 29 28 27 27 25 23 25 26 26 25 25 24 24 24 24 23 21
12 14 15 14 14 15 17 18 18 19 21 21 22 23 25 27 27 29 30 33 32 30 28 26 27 27 30 30 30 28 28 29 28 26 25 26 27 25 25 25 25 24 23 22
18 17 18 17 18 18 19 21 22 22 23 23 24 24 27 29 30 31 35 35 34 33 26 30 22 27 30 29 25 27 28 28 25 25 26 27 27 29 28 27 26 25 24 24
22 22 22 23 24 24 24 25 25 26 30 29 31 32 32 33 35 35 37 33 29 26 29 31 31 30 29 29 22 28 27 26 24 25 29 29 29 29 29 28 27 27 27 26
24 24 25 25 26 27 27 28 28 29 31 32 31 32 33 33 36 37 35 33 27 31 30 27 28 27 28 25 24 26 25 24 25 27 31 31 32 32 30 32 31 29 27 26
29 28 27 27 28 31 34 34 32 32 32 33 34 35 35 32 35 36 31 28 26 26 27 24 23 23 22 18 22 23 24 25 26 29 31 33 35 34 33 31 31 29 28 28
30 29 28 29 30 32 37 36 34 33 32 33 31 31 29 28 29 29 28 28 27 25 22 22 20 18 18 21 22 23 24 25 27 28 30 32 33 35 33 32 31 30 30 28
30 29 33 37 37 35 32 33 35 35 35 35 34 32 30 30 30 29 25 22 20 19 21 21 20 16 21 22 23 24 25 27 28 30 31 30 36 35 35 33 32 31 30 29
30 32 35 36 32 32 34 34 34 34 34 34 34 30 30 26 26 27 26 24 19 19 20 19 17 18 22 23 24 25 27 29 30 32 32 36 36 36 36 35 34 33 32 31
32 29 31 30 29 29 29 31 31 34 34 32 32 31 29 26 26 24 22 20 20 20 20 20 21 22 22 23 25 26 27 27 27 29 32 33 34 34 34 33 33 32 32 32
30 29 29 28 29 30 34 33 33 32 33 35 32 30 26 28 25 21 20 20 21 21 21 21 22 22 24 25 26 26 27 27 27 29 32 34 34 34 33 32 33 33 32 31